• In Uzbekistan
  • List of Countries
  • For 7 days
  • Water Temperature
  • Satellite Maps
  • Weather Map
  • Weather Widgets
  • user-avatar
    Login

    Hourly Weather Salta

    Today, 27 June, Tuesday

    Time Temperature Precipitation Wind Pressure Humidity
    00:00 +17°C° 0 mm 3 mps 648 mmHg 60%
    01:00 +17°C° 0 mm 3 mps 649 mmHg 58%
    02:00 +16°C° 0 mm 3 mps 649 mmHg 56%
    03:00 +16°C° 0 mm 3 mps 649 mmHg 55%
    04:00 +16°C° 0 mm 3 mps 649 mmHg 53%
    05:00 +14°C° 0 mm 3 mps 649 mmHg 52%
    06:00 +14°C° 0 mm 3 mps 649 mmHg 52%
    07:00 +16°C° 0 mm 3 mps 650 mmHg 51%
    08:00 +17°C° 0 mm 3 mps 651 mmHg 53%
    09:00 +18°C° 0 mm 3 mps 651 mmHg 49%
    10:00 +20°C° 0 mm 4 mps 652 mmHg 45%
    11:00 +22°C° 0 mm 4 mps 652 mmHg 42%
    12:00 +22°C° 0 mm 4 mps 652 mmHg 41%
    13:00 +22°C° 0 mm 5 mps 652 mmHg 41%
    14:00 +23°C° 0 mm 5 mps 652 mmHg 40%
    15:00 +21°C° 0 mm 5 mps 651 mmHg 44%
    16:00 +20°C° 0 mm 4 mps 651 mmHg 48%
    17:00 +18°C° 0 mm 4 mps 651 mmHg 53%
    18:00 +16°C° 0 mm 3 mps 651 mmHg 58%
    19:00 +14°C° 0 mm 3 mps 652 mmHg 63%
    20:00 +13°C° 0 mm 2 mps 652 mmHg 68%
    21:00 +12°C° 0 mm 2 mps 652 mmHg 69%
    22:00 +12°C° 0 mm 2 mps 652 mmHg 69%
    23:00 +12°C° 0 mm 2 mps 652 mmHg 69%

    Tomorrow, 28 June, Wednesday

    Time Temperature Precipitation Wind Pressure Humidity
    00:00 +10°C° 0 mm 2 mps 652 mmHg 68%
    01:00 +10°C° 0 mm 2 mps 652 mmHg 67%
    02:00 +10°C° 0 mm 2 mps 652 mmHg 66%
    03:00 +10°C° 0 mm 2 mps 652 mmHg 65%
    04:00 +10°C° 0 mm 2 mps 652 mmHg 64%
    05:00 +10°C° 0 mm 2 mps 652 mmHg 63%
    06:00 +10°C° 0 mm 2 mps 652 mmHg 61%
    07:00 +12°C° 0 mm 2 mps 652 mmHg 59%
    08:00 +12°C° 0 mm 2 mps 653 mmHg 57%
    09:00 +14°C° 0 mm 2 mps 653 mmHg 53%
    10:00 +16°C° 0 mm 3 mps 654 mmHg 50%
    11:00 +18°C° 0 mm 3 mps 654 mmHg 47%
    12:00 +18°C° 0 mm 3 mps 653 mmHg 47%
    13:00 +19°C° 0 mm 3 mps 653 mmHg 48%
    14:00 +19°C° 0 mm 4 mps 652 mmHg 48%
    15:00 +18°C° 0 mm 3 mps 652 mmHg 52%
    16:00 +17°C° 0 mm 3 mps 651 mmHg 56%
    17:00 +16°C° 0 mm 2 mps 651 mmHg 61%
    18:00 +15°C° 0 mm 2 mps 651 mmHg 64%
    19:00 +13°C° 0 mm 2 mps 651 mmHg 68%
    20:00 +12°C° 0 mm 2 mps 651 mmHg 72%
    21:00 +12°C° 0 mm 2 mps 652 mmHg 71%
    22:00 +10°C° 0 mm 2 mps 652 mmHg 69%
    23:00 +10°C° 0 mm 2 mps 652 mmHg 68%

    Day after tomorrow, 29 June, Thursday

    Time Temperature Precipitation Wind Pressure Humidity
    00:00 +10°C° 0 mm 2 mps 651 mmHg 68%
    01:00 +10°C° 0 mm 2 mps 651 mmHg 67%
    02:00 +9°C° 0 mm 2 mps 651 mmHg 67%
    03:00 +9°C° 0 mm 2 mps 651 mmHg 66%
    04:00 +9°C° 0 mm 2 mps 651 mmHg 66%
    05:00 +9°C° 0 mm 2 mps 650 mmHg 65%
    06:00 +11°C° 0 mm 1 mps 651 mmHg 63%
    07:00 +11°C° 0 mm 1 mps 652 mmHg 61%
    08:00 +12°C° 0 mm 1 mps 652 mmHg 59%
    09:00 +14°C° 0 mm 2 mps 653 mmHg 56%
    10:00 +16°C° 0 mm 2 mps 653 mmHg 52%
    11:00 +18°C° 0 mm 2 mps 654 mmHg 49%
    12:00 +18°C° 0 mm 2 mps 653 mmHg 49%
    13:00 +19°C° 0 mm 2 mps 653 mmHg 48%
    14:00 +19°C° 0 mm 2 mps 652 mmHg 48%
    15:00 +18°C° 0 mm 2 mps 652 mmHg 51%
    16:00 +18°C° 0 mm 2 mps 652 mmHg 55%
    17:00 +18°C° 0 mm 1 mps 652 mmHg 58%
    18:00 +15°C° 0 mm 1 mps 652 mmHg 64%
    19:00 +13°C° 0 mm 1 mps 652 mmHg 70%
    20:00 +11°C° 0 mm 1 mps 652 mmHg 75%
    21:00 +11°C° 0 mm 1 mps 652 mmHg 74%
    22:00 +10°C° 0 mm 1 mps 652 mmHg 72%
    23:00 +10°C° 0 mm 1 mps 652 mmHg 70%

    30 June, Friday

    Time Temperature Precipitation Wind Pressure Humidity
    00:00 +10°C° 0 mm 1 mps 652 mmHg 69%
    01:00 +9°C° 0 mm 1 mps 652 mmHg 67%
    02:00 +9°C° 0 mm 1 mps 651 mmHg 66%
    03:00 +9°C° 0 mm 1 mps 651 mmHg 66%
    04:00 +9°C° 0 mm 1 mps 651 mmHg 66%
    05:00 +8°C° 0 mm 1 mps 651 mmHg 66%
    06:00 +9°C° 0 mm 1 mps 652 mmHg 61%
    07:00 +10°C° 0 mm 1 mps 653 mmHg 57%
    08:00 +11°C° 0 mm 1 mps 653 mmHg 53%
    09:00 +14°C° 0 mm 1 mps 654 mmHg 47%
    10:00 +16°C° 0 mm 1 mps 655 mmHg 40%
    11:00 +20°C° 0 mm 1 mps 656 mmHg 34%
    12:00 +20°C° 0 mm 2 mps 655 mmHg 33%
    13:00 +20°C° 0 mm 2 mps 655 mmHg 32%
    14:00 +21°C° 0 mm 2 mps 654 mmHg 31%
    15:00 +20°C° 0 mm 2 mps 654 mmHg 36%
    16:00 +19°C° 0 mm 2 mps 654 mmHg 41%
    17:00 +19°C° 0 mm 1 mps 654 mmHg 46%
    18:00 +16°C° 0 mm 1 mps 654 mmHg 57%
    19:00 +13°C° 0 mm 1 mps 654 mmHg 67%
    20:00 +11°C° 0 mm 1 mps 654 mmHg 77%
    21:00 +10°C° 0 mm 0 mps 654 mmHg 78%
    22:00 +9°C° 0 mm 0 mps 654 mmHg 79%
    23:00 +9°C° 0 mm 0 mps 654 mmHg 80%

    1 July, Saturday

    Time Temperature Precipitation Wind Pressure Humidity
    00:00 +10°C° 0 mm 1 mps 654 mmHg 80%
    01:00 +9°C° 0 mm 1 mps 654 mmHg 81%
    02:00 +9°C° 0 mm 1 mps 654 mmHg 82%
    03:00 +9°C° 0 mm 1 mps 654 mmHg 82%
    04:00 +9°C° 0 mm 1 mps 653 mmHg 82%
    05:00 +8°C° 0 mm 1 mps 653 mmHg 82%
    06:00 +9°C° 0 mm 1 mps 654 mmHg 78%
    07:00 +10°C° 0 mm 1 mps 655 mmHg 74%
    08:00 +11°C° 0 mm 1 mps 655 mmHg 71%
    09:00 +14°C° 0 mm 1 mps 656 mmHg 62%
    10:00 +16°C° 0 mm 1 mps 657 mmHg 53%
    11:00 +18°C° 0 mm 2 mps 657 mmHg 44%
    12:00 +19°C° 0 mm 2 mps 657 mmHg 43%
    13:00 +20°C° 0 mm 2 mps 656 mmHg 42%
    14:00 +20°C° 0 mm 3 mps 656 mmHg 40%
    15:00 +19°C° 0 mm 3 mps 655 mmHg 46%
    16:00 +18°C° 0 mm 2 mps 655 mmHg 51%
    17:00 +17°C° 0 mm 2 mps 655 mmHg 57%
    18:00 +15°C° 0 mm 2 mps 655 mmHg 67%
    19:00 +13°C° 0 mm 1 mps 655 mmHg 78%
    20:00 +12°C° 0 mm 1 mps 654 mmHg 88%
    21:00 +11°C° 0 mm 1 mps 654 mmHg 88%
    22:00 +11°C° 0 mm 1 mps 654 mmHg 89%
    23:00 +11°C° 0 mm 1 mps 655 mmHg 89%

    2 July, Sunday

    Time Temperature Precipitation Wind Pressure Humidity
    00:00 +11°C° 0 mm 1 mps 654 mmHg 89%
    01:00 +11°C° 0 mm 1 mps 654 mmHg 89%
    02:00 +10°C° 0 mm 1 mps 654 mmHg 89%
    03:00 +10°C° 0 mm 1 mps 653 mmHg 89%
    04:00 +10°C° 0 mm 1 mps 653 mmHg 89%
    05:00 +9°C° 0 mm 1 mps 653 mmHg 89%
    06:00 +10°C° 0 mm 1 mps 654 mmHg 87%
    07:00 +11°C° 0 mm 1 mps 655 mmHg 85%
    08:00 +12°C° 0 mm 1 mps 655 mmHg 83%
    09:00 +14°C° 0 mm 1 mps 656 mmHg 75%
    10:00 +16°C° 0 mm 1 mps 657 mmHg 67%
    11:00 +18°C° 0 mm 2 mps 657 mmHg 59%
    12:00 +18°C° 0 mm 2 mps 657 mmHg 60%
    13:00 +18°C° 0 mm 3 mps 656 mmHg 61%
    14:00 +18°C° 0 mm 3 mps 656 mmHg 62%
    15:00 +18°C° 0 mm 3 mps 655 mmHg 66%
    16:00 +17°C° 0 mm 3 mps 655 mmHg 71%
    17:00 +16°C° 0 mm 2 mps 655 mmHg 75%
    18:00 +15°C° 0.1 mm 2 mps 655 mmHg 81%
    19:00 +14°C° 0.1 mm 1 mps 655 mmHg 87%
    20:00 +13°C° 0.1 mm 1 mps 655 mmHg 93%
    21:00 +12°C° 0.1 mm 1 mps 655 mmHg 93%
    22:00 +12°C° 0.1 mm 1 mps 655 mmHg 93%
    23:00 +12°C° 0.1 mm 1 mps 655 mmHg 92%
    Show more